Location: Nickerson Gardens
(33.9320°N, 118.2484°W)
Time: 09:08:29
(UTC+00:00)

Cosmos 676 Rocket - Pass Details

Date: 29 October 2020
Orbit: 754 x 784 km, 74.0° (Epoch: 26 November)

Event Time Altitude Azimuth Distance (km) Brightness Sun altitude
Rises 13:21:07 0° 189° (S) 3,212 7.2 -10.8°
Reaches altitude 10° 13:23:29 10° 187° (S) 2,285 6.5 -10.3°
Maximum altitude 13:28:37 68° 105° (ESE) 813 4.4 -9.3°
Drops below altitude 10° 13:33:46 10° 22° (NNE) 2,286 6.6 -8.2°
Sets 13:36:08 0° 20° (NNE) 3,213 7.3 -7.7°
